Vertical_Velocity
-1 1 2 2 2 5 -1 -7 -0 -5 -2 1 -1 2 1 1 1 -0 -2 -1 -3 -1 -4 -2 2 1 5 -2 0 1 0 1 -2 -1 -0 -1 -1 -1 -1 -1 -0 0 -1 -1 -2 -2 -2 -1 -2
-1 -1 1 2 4 3 -4 -3 0 -3 0 2 1 1 0 -0 -1 -4 1 -3 -4 -2 2 1 1 -1 -1 -3 -2 -0 2 1 -0 -0 -0 -2 -2 -1 -1 -2 -2 -0 -1 -1 -1 -1 -2 -2 -2
-1 0 -0 4 2 1 -3 -1 -0 0 1 1 2 -1 1 2 2 2 -2 -5 -2 -3 -2 1 -1 -3 -1 0 -3 -1 -1 1 0 -0 -1 -2 -2 -1 0 -0 -1 -0 -2 -1 -2 -2 -1 -2 -2
2 -3 4 6 -1 1 -5 -1 -2 -1 2 1 3 -5 -4 3 -0 -3 1 -2 -5 -3 -1 0 -1 -1 -2 -0 -1 -1 -2 0 1 1 0 -1 0 0 0 -0 -1 0 0 -1 -1 -0 -1 -1 -3
2 1 4 4 -2 -2 -2 -0 0 0 2 0 1 -3 -0 -3 1 -0 -0 0 -4 -3 -1 -3 -0 -1 -3 -0 -1 -0 -2 -1 -1 0 0 -1 1 1 1 -1 -0 1 0 -1 -0 -1 -1 -2 -3
0 2 4 1 0 -1 -1 2 4 -1 2 0 -2 2 -2 -4 0 -2 -1 -2 -1 0 -3 -3 -2 0 -1 -3 -0 0 -1 -1 -1 -0 -1 -1 0 0 -0 -1 1 -0 -0 -1 -2 -0 -0 -1 -3
-3 -0 3 1 1 3 -2 -1 0 -2 -4 1 2 2 1 -1 -1 0 0 0 -0 -2 0 -3 -3 -1 1 -2 -1 -1 -0 -1 -1 -0 -1 -2 -2 -1 -1 -2 1 0 -1 -0 -2 -1 -0 -1 -4
-1 -1 2 4 1 1 -0 -2 1 1 -5 1 2 1 -2 -2 1 1 -1 -1 -1 -0 -1 -3 -2 -4 -1 1 -0 -2 -2 1 0 -1 -2 -3 -2 -1 -1 -1 1 -0 -0 0 -1 -1 -1 -2 -2
0 0 3 -1 2 2 0 -1 -2 4 4 3 -1 0 3 -2 -0 -1 1 2 0 -0 0 -1 -1 -1 -2 0 -1 -3 -1 -2 -2 -1 1 -1 -2 -1 -1 -1 0 1 1 2 -1 -2 -1 -3 -1
-3 0 1 3 -1 4 1 -1 -1 -0 -4 6 -4 -6 -1 4 0 0 -1 1 1 2 3 -1 1 -0 -2 -1 1 1 -1 -4 -3 -2 -2 -1 -0 1 0 -1 0 1 0 2 0 -2 -1 -3 -1
0 2 -4 2 1 5 6 -4 -3 -3 7 4 -6 -4 -6 1 5 1 2 1 -1 -1 4 3 -0 -0 -1 -1 -1 2 2 -1 -3 -5 -4 -2 -2 -3 0 -1 1 2 1 1 2 -1 -1 -1 -2
-4 1 2 6 3 1 3 8 2 -8 10 -11 2 -3 -1 -3 -0 8 2 2 4 2 1 -1 1 0 -2 -1 -1 -2 1 1 1 -2 -2 -5 -5 -5 -2 -1 1 2 1 2 2 0 -1 -1 -1
-1 1 -0 2 1 -1 2 3 7 14 -10 8 -3 4 3 -5 2 -2 5 7 2 5 -1 2 2 1 -1 -0 -0 -1 -3 0 4 -0 1 -1 -2 -3 -3 -2 -1 -0 2 2 3 1 1 -1 -2
6 1 -3 -3 1 0 -0 7 -4 4 4 -2 2 1 2 4 -2 4 -2 2 5 1 1 -1 3 -1 -0 -0 -1 -2 -1 1 1 2 1 1 -0 -1 -3 -1 1 0 -2 0 1 1 1 2 -1
-3 0 -0 -2 -0 -9 -2 -1 3 1 10 1 -1 -1 0 1 1 2 -0 2 3 5 1 4 4 0 2 2 1 -2 -3 -4 1 3 1 2 1 1 -2 -2 -2 -2 -1 -0 -1 1 -0 2 1
-0 1 2 3 2 -6 3 7 1 -3 1 5 -0 -4 -5 -1 7 -3 -6 -2 -10 -0 0 1 2 2 3 4 3 4 -1 -0 1 2 4 1 2 1 -0 -2 -3 -3 -3 -1 1 -2 1 -0 1
4 3 3 -1 -3 0 1 8 -3 5 -0 4 -1 -4 -2 2 -3 5 -2 2 -0 -1 -0 3 1 2 2 4 -1 -1 -1 3 2 -0 1 5 0 1 -1 -0 -0 -4 -1 2 3 -1 1 -2 0
-5 3 0 -2 3 -5 7 -7 1 6 -2 2 3 6 -0 0 -2 -4 -0 1 3 1 0 -1 0 6 6 -1 1 3 0 6 -4 -2 -4 1 4 0 -3 -2 0 -4 -4 2 2 2 0 -1 1
-1 -0 -1 -1 -11 2 2 -1 -2 0 -5 3 -5 -3 7 -1 0 1 0 -2 -0 -2 2 -1 -4 2 3 3 4 3 4 3 0 -3 -0 -0 4 3 -2 0 1 -1 -2 -4 3 -1 3 -2 3
-3 -0 -4 -3 2 -9 -7 14 -7 2 5 2 4 1 -2 4 5 3 3 4 0 -1 -5 2 2 4 -0 -1 1 -4 2 3 -1 -5 -7 -1 6 3 -2 -3 3 -3 2 -3 1 -0 1 -3 2
-2 0 -3 -3 1 8 1 7 7 9 7 7 2 -1 1 2 4 -1 -5 -1 4 1 0 0 5 3 0 1 3 2 -3 -6 -4 3 4 3 4 -2 -4 -3 -0 4 7 4 1 0 2 2 5
-4 18 -5 5 -10 -1 1 6 0 -5 -2 4 1 6 0 2 -1 -1 11 6 -6 -3 -3 -0 1 3 5 6 -1 -3 2 -4 6 -6 -0 -3 -4 5 -10 1 -3 6 -19 76 6 2 1 1 6
-8 -3 1 -6 0 -10 -12 9 -24 7 -5 -9 -6 -7 -2 -7 -5 1 -7 1 14 3 -5 -1 -4 2 3 3 -2 2 -6 5 -4 0 4 -11 -4 -5 -4 -0 4 2 3 -7 20 0 1 2 -0
3 -1 0 -3 -2 -1 -10 7 25 -7 3 -4 -9 -2 -3 7 -1 0 2 5 1 -2 4 4 1 2 4 0 -5 -2 -2 4 4 -1 1 -12 -1 -0 7 9 5 -3 -1 0 -3 12 0 10 3
-4 2 0 -11 -16 4 3 -2 8 -8 -8 -5 -13 -6 -2 -2 -6 -7 -4 5 -4 0 1 3 -4 1 6 5 -1 -1 -3 -0 -2 -1 8 3 6 8 32 -4 10 33 8 4 -3 0 14 20 1
-7 3 7 -15 -6 17 -9 -9 -1 -7 -12 -1 -15 -7 -9 -6 -4 -8 -11 -7 2 -1 -6 -3 3 4 -1 2 1 -2 2 -4 7 -6 -11 -5 7 7 -1 14 2 30 0 10 -2 -9 -9 6 11
-3 -3 -1 -1 -2 -1 -1 -2 17 -2 -4 -6 -4 -1 -6 -1 -7 -7 -9 -13 -9 -10 -12 -8 1 -2 3 0 -1 -0 3 6 -4 9 -3 5 4 -6 9 -5 7 -6 21 19 2 -1 2 -7 5
1 -4 -12 -7 -4 -4 -0 6 2 -5 -7 -8 -6 -3 -2 -2 -2 -1 -2 -1 -2 -2 -1 -5 -1 8 13 6 1 3 6 -3 5 6 -4 6 15 45 13 -1 -2 17 11 -1 -1 -1 1 -1 3
-4 -1 0 3 1 -2 -5 15 -0 -6 -1 -3 -3 -2 -1 2 4 2 0 -1 -3 -3 -5 -7 4 3 -7 75 9 7 5 -7 6 -3 4 -12 -3 5 8 1 -1 -1 -1 -5 -6 1 1 0 3
-4 -1 0 1 -12 -5 -10 16 -1 -2 -4 -2 -3 -1 3 -2 1 3 2 -1 -1 -0 -1 10 1 2 -9 3 17 16 -5 -6 2 -3 -2 1 -3 1 8 2 -2 0 -1 -8 -2 1 -3 1 -1
Height
5868 5868 5868 5868 5871 5868 5867 5867 5867 5867 5867 5866 5866 5866 5866 5867 5867 5869 5865 5864 5863 5862 5863 5862 5861 5861 5861 5861 5860 5860 5860 5860 5859 5859 5859 5859 5858 5857 5856 5855 5853 5852 5850 5848 5846 5844 5841 5837 5834
5864 5864 5864 5864 5865 5865 5864 5864 5863 5863 5862 5861 5862 5863 5863 5862 5862 5862 5862 5861 5860 5859 5859 5858 5859 5860 5859 5859 5858 5858 5859 5859 5858 5857 5857 5856 5856 5856 5854 5853 5851 5850 5848 5846 5844 5841 5839 5836 5833
5860 5860 5861 5860 5861 5861 5861 5860 5859 5859 5858 5858 5860 5860 5860 5861 5861 5860 5859 5858 5857 5856 5856 5855 5856 5857 5857 5857 5856 5856 5857 5857 5856 5856 5855 5854 5853 5853 5852 5850 5849 5847 5846 5844 5842 5839 5836 5834 5830
5855 5857 5857 5857 5858 5859 5857 5855 5857 5855 5855 5856 5855 5856 5857 5858 5858 5857 5857 5856 5856 5855 5854 5854 5854 5853 5854 5854 5854 5853 5853 5853 5854 5853 5852 5852 5850 5850 5849 5847 5846 5845 5844 5842 5840 5837 5834 5831 5827
5850 5851 5852 5856 5856 5855 5853 5852 5852 5851 5851 5851 5852 5851 5851 5852 5853 5853 5852 5851 5852 5852 5851 5850 5851 5851 5850 5850 5851 5851 5850 5850 5850 5849 5849 5848 5847 5847 5846 5844 5844 5842 5841 5840 5837 5835 5832 5829 5825
5845 5846 5849 5853 5853 5851 5850 5848 5848 5848 5847 5847 5847 5848 5847 5847 5848 5848 5847 5847 5847 5847 5847 5846 5847 5848 5846 5846 5846 5847 5847 5846 5846 5845 5845 5845 5844 5843 5842 5842 5841 5840 5839 5837 5835 5832 5829 5827 5824
5840 5841 5845 5849 5850 5847 5845 5843 5844 5844 5843 5843 5843 5842 5843 5843 5843 5844 5843 5842 5842 5842 5842 5842 5842 5843 5843 5843 5842 5842 5842 5842 5842 5841 5841 5841 5840 5840 5839 5839 5838 5836 5835 5834 5832 5830 5827 5824 5822
5835 5835 5840 5843 5843 5842 5840 5838 5839 5840 5839 5837 5839 5837 5838 5837 5839 5839 5840 5838 5837 5838 5838 5837 5836 5838 5839 5839 5838 5838 5838 5838 5837 5837 5837 5837 5836 5835 5835 5835 5834 5832 5831 5831 5829 5827 5824 5822 5819
5830 5830 5834 5835 5836 5836 5834 5834 5834 5833 5833 5832 5831 5830 5832 5832 5832 5833 5833 5833 5832 5832 5833 5832 5831 5831 5832 5834 5834 5833 5833 5832 5831 5831 5831 5831 5831 5831 5830 5830 5829 5828 5827 5826 5825 5823 5821 5819 5816
5823 5825 5826 5827 5827 5828 5828 5828 5826 5825 5825 5827 5826 5824 5822 5823 5825 5825 5826 5826 5825 5825 5825 5825 5826 5825 5824 5827 5828 5829 5828 5827 5825 5825 5826 5826 5826 5825 5825 5825 5824 5823 5822 5822 5821 5819 5817 5815 5813
5815 5817 5816 5819 5819 5820 5822 5820 5819 5818 5818 5818 5818 5816 5815 5815 5817 5818 5817 5817 5818 5818 5817 5818 5818 5818 5816 5818 5820 5822 5821 5820 5819 5818 5819 5819 5820 5821 5821 5820 5819 5817 5817 5816 5816 5816 5813 5812 5810
5806 5809 5808 5812 5812 5812 5811 5813 5813 5810 5811 5808 5808 5809 5809 5807 5806 5808 5807 5809 5809 5810 5811 5810 5810 5810 5810 5809 5810 5814 5815 5815 5813 5812 5813 5813 5814 5815 5816 5816 5814 5812 5811 5811 5811 5811 5810 5808 5807
5799 5799 5800 5801 5802 5802 5803 5802 5803 5802 5797 5799 5800 5800 5800 5800 5798 5795 5797 5799 5799 5800 5802 5802 5802 5802 5801 5802 5801 5802 5807 5808 5808 5806 5807 5806 5806 5807 5809 5809 5808 5807 5806 5805 5805 5806 5806 5804 5803
5793 5792 5793 5792 5793 5793 5792 5793 5791 5792 5793 5790 5789 5789 5790 5790 5789 5788 5786 5786 5788 5790 5790 5790 5791 5792 5792 5793 5793 5795 5797 5800 5802 5801 5800 5800 5800 5801 5801 5801 5801 5801 5801 5799 5799 5800 5802 5800 5799
5785 5785 5785 5784 5784 5782 5782 5783 5780 5781 5780 5779 5778 5777 5777 5777 5777 5776 5776 5776 5774 5776 5778 5779 5780 5781 5781 5783 5784 5784 5788 5792 5794 5795 5794 5794 5794 5794 5793 5794 5794 5794 5795 5794 5793 5794 5795 5796 5794
5778 5777 5777 5774 5773 5771 5772 5773 5769 5768 5768 5766 5767 5766 5765 5764 5764 5764 5765 5766 5765 5765 5766 5767 5768 5769 5770 5771 5773 5774 5777 5781 5782 5785 5787 5787 5788 5787 5787 5787 5786 5786 5788 5787 5787 5788 5789 5789 5789
5767 5769 5766 5766 5766 5763 5764 5762 5760 5759 5757 5756 5755 5755 5754 5755 5755 5756 5757 5757 5756 5756 5755 5755 5756 5757 5758 5760 5763 5764 5766 5769 5773 5775 5778 5780 5779 5779 5779 5780 5779 5779 5780 5779 5779 5781 5783 5783 5782
5758 5758 5756 5755 5755 5754 5753 5752 5749 5750 5747 5747 5744 5745 5745 5743 5742 5742 5743 5745 5745 5745 5745 5745 5744 5746 5748 5749 5750 5752 5754 5758 5762 5765 5767 5768 5769 5769 5771 5771 5771 5771 5770 5770 5771 5771 5773 5777 5776
5748 5748 5748 5746 5745 5743 5742 5741 5739 5738 5735 5734 5733 5731 5732 5732 5731 5730 5729 5731 5733 5733 5732 5732 5733 5734 5734 5736 5739 5741 5743 5748 5749 5752 5755 5756 5758 5759 5759 5762 5764 5764 5762 5761 5761 5762 5764 5767 5769
5739 5739 5738 5737 5736 5732 5729 5730 5727 5727 5725 5722 5719 5719 5718 5718 5718 5718 5717 5718 5718 5720 5719 5720 5721 5722 5722 5724 5726 5728 5730 5732 5735 5738 5742 5744 5746 5748 5748 5749 5752 5752 5753 5751 5752 5753 5755 5757 5761
5728 5727 5727 5726 5724 5721 5718 5717 5712 5712 5709 5708 5707 5705 5703 5702 5703 5703 5703 5703 5704 5705 5705 5706 5707 5711 5712 5711 5712 5714 5717 5720 5722 5727 5731 5735 5736 5735 5736 5737 5739 5740 5738 5740 5740 5744 5745 5748 5751
5716 5717 5715 5714 5712 5710 5708 5709 5704 5698 5691 5692 5691 5691 5689 5689 5687 5685 5688 5690 5688 5689 5690 5691 5693 5696 5698 5698 5699 5701 5704 5706 5711 5713 5718 5721 5723 5724 5723 5724 5725 5726 5724 5723 5729 5732 5735 5735 5741
5707 5704 5703 5702 5699 5699 5696 5696 5688 5684 5677 5675 5673 5673 5672 5671 5671 5671 5672 5672 5674 5673 5673 5675 5677 5681 5682 5684 5685 5687 5690 5694 5697 5700 5703 5708 5710 5710 5710 5709 5712 5712 5714 5717 5718 5718 5723 5725 5730
5695 5695 5692 5690 5689 5687 5684 5684 5681 5674 5665 5660 5657 5656 5653 5653 5652 5652 5654 5656 5656 5655 5656 5656 5658 5663 5665 5666 5670 5673 5677 5680 5681 5685 5689 5694 5693 5692 5696 5697 5698 5698 5699 5702 5707 5707 5710 5713 5719
5688 5686 5682 5679 5677 5673 5672 5670 5667 5659 5656 5647 5643 5641 5636 5632 5629 5628 5630 5632 5633 5634 5637 5638 5639 5643 5647 5648 5653 5656 5661 5664 5665 5670 5676 5677 5678 5680 5681 5687 5691 5689 5687 5692 5695 5697 5701 5704 5707
5678 5677 5674 5668 5667 5665 5659 5657 5649 5645 5640 5636 5631 5627 5621 5616 5611 5607 5606 5607 5607 5607 5612 5616 5618 5623 5627 5630 5635 5639 5645 5647 5652 5656 5660 5666 5666 5669 5673 5676 5674 5662 5670 5679 5683 5685 5689 5691 5695
5667 5665 5662 5657 5654 5651 5647 5642 5638 5630 5628 5622 5619 5613 5608 5603 5597 5593 5589 5587 5586 5584 5584 5584 5587 5596 5601 5610 5618 5622 5629 5634 5639 5643 5646 5648 5653 5654 5656 5661 5660 5658 5665 5666 5671 5674 5676 5680 5684
5655 5653 5649 5646 5641 5638 5634 5628 5620 5615 5612 5608 5605 5601 5597 5593 5588 5583 5578 5573 5571 5569 5568 5566 5568 5572 5580 5586 5598 5605 5611 5620 5626 5631 5635 5639 5643 5642 5644 5647 5649 5654 5657 5658 5659 5662 5664 5669 5675
5643 5640 5637 5633 5631 5625 5623 5618 5608 5604 5600 5596 5594 5591 5588 5584 5580 5576 5572 5566 5563 5559 5556 5557 5556 5560 5564 5576 5578 5589 5596 5606 5613 5618 5621 5629 5633 5633 5638 5640 5642 5644 5645 5646 5649 5651 5655 5659 5665
5632 5628 5625 5620 5616 5612 5608 5607 5598 5593 5588 5586 5584 5582 5579 5576 5573 5569 5565 5562 5557 5552 5549 5550 5550 5552 5554 5557 5566 5575 5582 5590 5598 5604 5612 5617 5624 5625 5625 5628 5631 5634 5635 5638 5640 5643 5647 5650 5654